Regional Weather Roundup
Issued by NWS Midland/Odessa, TX

Skip options and go directly to product.
Home | Oldest Version | Previous Version | Current Version | All | Text Only | Save Text | Print | Product List | Glossary On

Skip product version selection by date and time.   
294
ASUS44 KMAF 222110
RWRMAF
MIDLAND AREA WEATHER ROUNDUP
NATIONAL WEATHER SERVICE MIDLAND TX
300 PM CST MON DEC 22 2014

...IN SOUTHWEST TEXAS AND SOUTHEAST NEW MEXICO...

CITY           SKY/WX    TMP DP  RH WIND       PRES   REMARKS
ALPINE         PTSUNNY   66  31  26 SW13      29.82F
ANDREWS        FAIR      60  34  36 N3        29.68F
ARTESIA        PTSUNNY   70  30  23 SW14      29.64F
BIG SPRING     CLOUDY    62  33  33 NW6       29.70F
CARLSBAD       PTSUNNY   70  30  22 W18       29.64F
DRYDEN           N/A     80  29  15 SW20G28   29.64F
FORT STOCKTON  PTSUNNY   75  30  19 NW15G24   29.69F
GUAD PASS      NOT AVBL
HOBBS          SUNNY     57  34  41 NE5       29.68F
MARFA          PTSUNNY   61  28  29 W22       29.82F
MIDLAND AIRPK  CLOUDY    63  34  34 N3        29.68F
MIDLAND INTL   CLOUDY    63  34  33 N8        29.67F
ODESSA         CLOUDY    63  33  32 N8        29.67F
PECOS          CLOUDY    70  34  26 SW20      29.68F
PRESIDIO       FAIR      73  31  21 W6        29.77F
SEMINOLE       CLOUDY    57  33  40 NE6       29.68F
SNYDER         PTSUNNY   58  35  41 N7        29.68F
WINK           CLOUDY    71  30  21 W12       29.65F
$$
...OTHER STATIONS IN TEXAS...

CITY           SKY/WX    TMP DP  RH WIND       PRES   REMARKS
ABILENE        CLOUDY    65  36  34 NW12      29.66F
AMARILLO       CLOUDY    49  21  33 N14       29.72R
AUSTIN         CLOUDY    68  55  63 S10       29.61F
BROWNSVILLE    SUNNY     78  64  61 S18G24    29.67F
CORPUS CHRISTI MOSUNNY   76  61  59 S12       29.65F
DALLAS FTW     PTSUNNY   62  45  53 W12       29.58R
DEL RIO        CLOUDY    58  52  80 S5        29.66F HAZE
EL PASO        MOSUNNY   65  33  30 W25G35    29.75F
HOUSTON INT    CLOUDY    71  60  68 SW12      29.62F
LUBBOCK        CLOUDY    56  29  35 N9        29.68F
SAN ANGELO     MOSUNNY   72  34  24 NW15      29.64F
SAN ANTONIO    PTSUNNY   70  53  54 SW8       29.64F
WACO           MOSUNNY   70  39  32 W14       29.58S
WICHITA FALLS  NOT AVBL
$$
...OTHER LOCATIONS IN NEW MEXICO...

CITY           SKY/WX    TMP DP  RH WIND       PRES   REMARKS
ALAMAGORDO     MOSUNNY   63  32  31 SW3       29.76F
ALBUQUERQUE    PTSUNNY   60  26  27 NW26G32   29.70F
CANNON AFB     MOSUNNY   51  24  35 E9        29.67F
CLOVIS         CLOUDY    52  25  35 E10       29.68F
HOLLOMAN AFB   MOSUNNY   65  33  30 SW9       29.74F
ROSWELL        MOSUNNY   72  28  19 NW18      29.61F
RUIDOSO        SUNNY     54  27  35 W22G36    29.76F
SANTA FE       PTSUNNY   51  30  44 W23G39    29.68F
TRUTH OR CONSE MOSUNNY   64  32  30 S13       29.75F
TUCUMCARI      CLOUDY    50  21  32 E17       29.67F
$$

USA.gov is the U.S. government's official web portal to all federal, state and local government web resources and services.